Terminal Aerodrome Forecast
Issued by NWS Wichita, KS

Home | Current Version | Previous Version | Text Only | Print | Product List | Glossary On
Versions: 1 2 3 4 5 6 7 8 9 10 11 12 13 14 15 16 17
000
FTUS43 KICT 190700 AAA
TAFICT
TAF AMD
KICT 190746Z 1908/2006 15010KT P6SM SCT250
      TEMPO 1908/1912 4SM FU
     FM191500 18019G27KT P6SM BKN250
     FM191700 18022G31KT P6SM BKN250
     FM200200 17015KT P6SM BKN250=

USA.gov is the U.S. government's official web portal to all federal, state and local government web resources and services.